Find Starlink 35594

NORAD ID: 66157 Int'l Des: 2025-240 Owner: SPXS Country: US Constellation: starlink operational
LEOCIRCULAR

Aktuelle Ansicht

3D-Globus wird geladen...

Über Starlink 35594

Beschreibung wird geladen...

Nächste Überflüge

Passes for default location (London). Set your location on the main map for personalized predictions.

Höhenverlauf

Loading altitude history...

Zweizeiliger Elementsatz

1 66157U 25240M 26146.19734901 .00043084 00000-0 12781-2 0 9991
2 66157 53.1595 62.1983 0001077 91.1803 268.9323 15.34420648 33861
Epoch: 26. Mai 2026 • Age: 15 hours

Aktueller Status

Höhe 467.9 km
Geschwindigkeit 7.64 km/s
Subsatellitenpunkt 51.61°N, 3.84°W
Startdatum 25. Okt. 2025
Alter 0.5 years
Typ internet

Technische Details

Klassifizierung Payload
Masse 575.00 kg
Trockenmasse 530.00 kg
Gesamtmasse 575.00 kg
Länge 0.30 m
Durchmesser 4.10 m
Spannweite 29.00 m
Form Box + pan
Hersteller SPXS
Bus-Typ Starlink V2MO
Phasenstatus In Orbit
Besitzer/Staat SPXS/US

Most Searched